Weather History for Trinidad, CO

Change the Weather History Date:

Monday, December 9, 2013

  Actual Average Record
Temperature  
Mean Temperature 14 °F 32 °F  
Max Temperature 30 °F 46 °F 71 °F (1996)
Min Temperature -2 °F 18 °F -10 °F (1978)
Degree Days  
Heating Degree Days 51 33  
Month to date heating degree days 369 290  
Since 1 July heating degree days 1540 1523  
Cooling Degree Days 0 0  
Month to date cooling degree days 0 0  
Year to date cooling degree days 1068 719  
Moisture  
Dew Point -4 °F    
Average Humidity 51    
Maximum Humidity 87    
Minimum Humidity 14    
Precipitation  
Precipitation 0.00 in 0.02 in 0.77 in (1961)
Month to date precipitation T 0.17  
Year to date precipitation 9.80 13.47  
Sea Level Pressure  
Sea Level Pressure 30.17 in    
Wind  
Wind Speed 8 mph (West)    
Max Wind Speed 22 mph    
Max Gust Speed 28 mph    
Visibility 10 miles    
Events      
T = Trace of Precipitation, MM = Missing Value Source: NWS Daily Summary

Daily Weather History Graph

Daily Weather History Graph

Search for Another Location

Airport:

Trip Planner

Search our weather history database for the weather conditions in past years. The results will help you decide how hot, cold, wet, or windy it might be!

Date:

Astronomy

Dec. 09, 2013 Rise Set
Actual Time 6:59 AM MST 4:39 PM MST
Civil Twilight 6:30 AM MST 5:08 PM MST
Nautical Twilight 5:58 AM MST 5:41 PM MST
Astronomical Twilight 5:26 AM MST 6:12 PM MST
Moon 12:02 PM MST (12/9) No Moon Set
Length of Visible Light 10h 37m
Length of Day
9h 39m
First Quarter, 52% of the Moon is Illuminated
Dec 9
First Quarter
Dec 17
Full
Dec 25
Last Quarter
Jan 1
New
Jan 7
First Quarter

Hourly Weather History & Observations

Time (MST) Temp. Windchill Dew Point Humidity Pressure Visibility Wind Dir Wind Speed Gust Speed Precip Events Conditions
12:54 AM 6.1 °F -5.6 °F 1.0 °F 80% 30.09 in 10.0 mi NW 6.9 mph - N/A   Clear
1:54 AM 3.9 °F -8.2 °F -0.9 °F 80% 30.12 in 10.0 mi NW 6.9 mph - N/A   Clear
2:22 AM 3.9 °F -8.2 °F -0.9 °F 80% 29.99 in 10.0 mi WNW 6.9 mph - N/A   Mostly Cloudy
2:54 AM 3.0 °F -8.0 °F -2.0 °F 80% 30.14 in 10.0 mi WNW 5.8 mph - N/A   Mostly Cloudy
3:06 AM 3.0 °F -8.0 °F -2.0 °F 80% 29.99 in 10.0 mi WNW 5.8 mph - N/A   Scattered Clouds
3:54 AM 3.0 °F -6.4 °F -2.9 °F 76% 30.13 in 10.0 mi WNW 4.6 mph - N/A   Clear
4:37 AM -0.0 °F -13.0 °F -5.1 °F 79% 29.98 in 10.0 mi NW 6.9 mph - N/A   Mostly Cloudy
4:54 AM -0.0 °F -13.0 °F -4.0 °F 83% 30.18 in 10.0 mi WNW 6.9 mph - N/A   Overcast
5:01 AM 1.0 °F -11.7 °F -4.0 °F 79% 29.99 in 10.0 mi WNW 6.9 mph - N/A   Overcast
5:54 AM -0.0 °F -11.6 °F -4.0 °F 83% 30.19 in 9.0 mi West 5.8 mph - N/A   Overcast
6:54 AM -2.0 °F -15.4 °F -6.0 °F 83% 30.26 in 10.0 mi WNW 6.9 mph - N/A   Mostly Cloudy
7:09 AM -2.0 °F -15.4 °F -7.1 °F 79% 30.01 in 10.0 mi West 6.9 mph - N/A   Scattered Clouds
7:54 AM 1.9 °F -9.2 °F -2.9 °F 80% 30.26 in 10.0 mi West 5.8 mph - N/A   Clear
8:54 AM 8.1 °F -0.5 °F 1.9 °F 76% 30.26 in 10.0 mi West 4.6 mph - N/A   Clear
9:54 AM 15.1 °F 7.7 °F 5.0 °F 64% 30.22 in 10.0 mi Variable 4.6 mph - N/A   Clear
10:54 AM 17.1 °F 10.0 °F 6.1 °F 62% 30.21 in 10.0 mi SW 4.6 mph - N/A   Clear
11:54 AM 21.9 °F - 1.9 °F 42% 30.15 in 10.0 mi Calm Calm - N/A   Clear
12:54 PM 25.0 °F 17.1 °F 3.9 °F 41% 30.13 in 10.0 mi West 6.9 mph - N/A   Clear
1:54 PM 27.0 °F 17.3 °F 3.0 °F 36% 30.12 in 10.0 mi SSE 10.4 mph - N/A   Clear
2:50 PM 30.2 °F 17.4 °F -13.0 °F 15% 29.98 in 10.0 mi NW 20.7 mph 27.6 mph N/A   Clear
2:54 PM 30.0 °F 17.9 °F -14.1 °F 14% 30.13 in 10.0 mi NW 18.4 mph 27.6 mph N/A   Clear
3:54 PM 28.9 °F 18.6 °F -13.0 °F 16% 30.17 in 10.0 mi NW 12.7 mph - N/A   Clear
4:54 PM 24.1 °F 18.2 °F -11.0 °F 21% 30.24 in 10.0 mi WNW 4.6 mph - N/A   Clear
5:54 PM 17.1 °F 6.6 °F -6.0 °F 36% 30.30 in 10.0 mi SSW 8.1 mph - N/A   Clear
6:54 PM 16.0 °F 6.3 °F -8.0 °F 34% 30.35 in 10.0 mi West 6.9 mph - N/A   Clear
7:54 PM 16.0 °F 2.9 °F -8.0 °F 34% 30.35 in 10.0 mi SW 11.5 mph - N/A   Clear
8:54 PM 12.9 °F 0.7 °F -8.0 °F 39% 30.34 in 10.0 mi West 9.2 mph - N/A   Clear
9:54 PM 12.0 °F -0.4 °F -9.0 °F 39% 30.31 in 10.0 mi WSW 9.2 mph - N/A   Clear
10:54 PM 10.0 °F -4.5 °F -9.0 °F 42% 30.32 in 10.0 mi West 11.5 mph - N/A   Clear
11:54 PM 15.1 °F 0.5 °F -9.0 °F 34% 30.27 in 10.0 mi WSW 13.8 mph - N/A   Clear